This demonstration page uses our WeatherBlox Daily Observations layout. Learn more.

Left ArrowRight Arrow

36.17497, -115.13722

Hourly Observations for September 3, 2015

Temp ( °F °C ) Dew Point ( °F °C ) Humidity (%) Winds ( mph kmh ) Pressure ( in mb ) Visibility ( mi km ) Precip ( " mm )
12:53 am 00:53 Clear 86 30 45 7.2 24 24 SW 12 19 29.79 1009 10 16 N/A
1:53 am 01:53 Clear 84 28.9 46 7.8 27 27 S 3 6 29.78 1008 10 16 N/A
2:53 am 02:53 Clear 83 28.3 45 7.2 26 26 SSW 3 6 29.78 1009 10 16 N/A
3:53 am 03:53 Clear 80 26.7 45 7.2 29 29 SE 7 11 29.79 1009 10 16 N/A
4:53 am 04:53 Clear 81 27.2 44 6.7 27 27 S 8 13 29.78 1009 10 16 N/A
5:53 am 05:53 Clear 80 26.7 39 3.9 23 23 SSW 9 15 29.79 1009 10 16 N/A
6:53 am 06:53 Sunny 80 26.7 36 2.2 20 20 SSW 12 19 29.80 1009 10 16 N/A
7:53 am 07:53 Sunny 82 27.8 35 1.7 18 18 SSW 10 17 29.83 1010 10 16 N/A
8:53 am 08:53 Sunny 85 29.4 36 2.2 17 17 SSE 12 19 29.83 1010 10 16 N/A
9:53 am 09:53 Sunny 89 31.7 39 3.9 17 17 S 15 24 29.82 1010 10 16 N/A
10:53 am 10:53 Sunny 91 32.8 41 5 17 17 S 14 22 29.80 1009 10 16 N/A
11:53 am 11:53 Sunny 94 34.4 38 3.3 14 14 WSW 13 20 29.78 1008 10 16 N/A
12:53 pm 12:53 Sunny 95 35 38 3.3 14 14 SW 17 28 29.75 1007 10 16 N/A
1:11 pm 13:11 Sunny 96 35.6 38 3.3 13 13 SW 13 20 29.59 1002 10 16 N/A
1:53 pm 13:53 Sunny 97 36.1 36 2.2 12 12 WSW 20 31 29.72 1007 10 16 N/A
2:53 pm 14:53 Sunny 98 36.7 34 1.1 11 11 WSW 14 22 29.69 1006 10 16 N/A
3:53 pm 15:53 Sunny 97 36.1 33 0.6 10 10 SW 9 15 29.67 1005 10 16 N/A
4:53 pm 16:53 Sunny 97 36.1 33 0.6 10 10 SW 15 24 29.65 1004 10 16 N/A
5:53 pm 17:53 Sunny 96 35.6 33 0.6 11 11 WSW 18 30 29.65 1004 10 16 N/A
6:53 pm 18:53 Sunny 93 33.9 34 1.1 12 12 WSW 16 26 29.65 1004 10 16 N/A
7:53 pm 19:53 Clear 92 33.3 33 0.6 12 12 WSW 10 17 29.67 1005 10 16 N/A
8:53 pm 20:53 Clear 89 31.7 34 1.1 14 14 SW 5 7 29.69 1005 10 16 N/A
9:53 pm 21:53 Clear 86 30 35 1.7 16 16 SSW 7 11 29.69 1006 10 16 N/A
10:53 pm 22:53 Clear 87 30.6 30 -1.1 13 13 SSW 13 20 29.69 1006 10 16 N/A
11:53 pm 23:53 Clear 86 30 33 0.6 15 15 WSW 9 15 29.70 1006 10 16 N/A

Powered by AerisWeather